Regional & State Weather Roundups


602 
ASUS43 KMKX 181800
RWRWI 
WISCONSIN REGIONAL WEATHER ROUNDUP
NATIONAL WEATHER SERVICE MILWAUKEE/SULLIVAN WI
1200 PM CST SUN FEB 18 2018
NOTE: "FAIR" INDICATES FEW OR NO CLOUDS BELOW 12,000 FEET WITH NO
SIGNIFICANT WEATHER AND/OR OBSTRUCTIONS TO VISIBILITY.
WIZ001-002-006>008-014>016-023>028-181900-
NORTHWEST WISCONSIN
  
CITY           SKY/WX    TMP DP  RH WIND       PRES   REMARKS
SUPERIOR ARPT  CLOUDY    21  13  72 NE12      29.81F WCI   9          
6HR MIN TEMP:  13; 6HR MAX TEMP:  21;                                
ASHLAND        CLOUDY    21  12  68 E10       29.84F WCI  10          
6HR MIN TEMP:  13; 6HR MAX TEMP:  21; 6HR PCP:  0.01;                
HAYWARD        CLOUDY    26  12  55 SE15G30   29.76F WCI  14          
6HR MIN TEMP:  13; 6HR MAX TEMP:  26;                                
SIREN          FAIR      27  14  59 SE21      29.72F WCI  13          
CUMBERLAND     CLOUDY    27  14  59 SE17G23   29.77F WCI  14          
RICE LAKE      FAIR      27  17  65 SE17G26   29.81F WCI  14          
CHETEK         CLOUDY    28  17  64 SE13G20   29.82F WCI  17          
LADYSMITH      CLOUDY    28  15  57 SE15G22   29.88F WCI  16          
EAU CLAIRE     NOT AVBL                                               
MENOMONIE      CLOUDY    32  22  68 SE17      29.80F WCI  21          
6HR MIN TEMP:  14; 6HR MAX TEMP:  32;                                
NEW RICHMOND   CLOUDY    32  22  67 S21G28    29.74F WCI  19          
OSCEOLA        CLOUDY    31  22  71 SE21G29   29.74F WCI  18          
$$
 
WIZ003>005-009-010-017-018-181900-
NORTH CENTRAL WISCONSIN
  
CITY           SKY/WX    TMP DP  RH WIND       PRES   REMARKS
MANITOWISH WTR CLOUDY    19   8  60 SE10      29.90F WCI   8          
ARBOR VITAE    CLOUDY    22  10  58 SE15      29.92F WCI   9          
WOODRUFF       CLOUDY    22  10  58 SE15      29.92F WCI   9          
RHINELANDER    CLOUDY    23   9  55 SE14      29.94F WCI  11          
6HR MIN TEMP:   6; 6HR MAX TEMP:  23;                                
EAGLE RIVER    PTSUNNY   21   8  56 S8G16     29.96F WCI  11          
LAND O LAKES   CLOUDY    20  10  66 SE13      29.97F WCI   7          
PHILLIPS       CLOUDY    23  10  57 SE10G16   29.89F WCI  12          
TOMAHAWK       CLOUDY    24  10  54 SE5       29.95F WCI  18          
MEDFORD        FAIR      25  14  64 SE16G26   29.92F WCI  12          
MERRILL        CLOUDY    25  12  58 SE10      29.99F WCI  15          
$$
 
WIZ029-030-035-036-043>047-181900-
CENTRAL WISCONSIN
  
CITY           SKY/WX    TMP DP  RH WIND       PRES   REMARKS
WAUSAU         CLOUDY    27  17  66 SE15G26   29.97F WCI  15          
6HR MIN TEMP:   7; 6HR MAX TEMP:  27;                                
MOSINEE        CLOUDY    28  19  69 S18G24    30.00F WCI  16          
MARSHFIELD     CLOUDY    30  21  69 S20G29    29.93F WCI  17          
6HR MIN TEMP:   8; 6HR MAX TEMP:  30;                                
STEVENS POINT  FAIR      29  17  62 S21       30.03F WCI  15          
WAUPACA        FAIR      34  21  59 SE13      30.08F WCI  25          
WAUTOMA        FAIR      35  20  54 S16G26    30.05F WCI  25          
6HR MIN TEMP:  10; 6HR MAX TEMP:  35;                                
WISC RAPIDS    FAIR      34  19  54 S13G22    30.00F WCI  25          
6HR MIN TEMP:  11; 6HR MAX TEMP:  34;                                
CAMP DOUGLAS   NOT AVBL                                               
$$
 
WIZ011>013-019>022-031-037>040-048>050-181900-
NORTHEAST WISCONSIN
  
CITY           SKY/WX    TMP DP  RH WIND       PRES   REMARKS
ANTIGO         FAIR      22  13  68 S15       30.02F WCI   8          
SHAWANO        FAIR      31  19  61 SE5       30.10F WCI  26          
OCONTO         PTSUNNY   26  15  65 S6        30.14F WCI  19          
STURGEON BAY   FAIR      28  19  69 S14       30.14F WCI  17          
6HR MIN TEMP:  16; 6HR MAX TEMP:  28;                                
GREEN BAY      FAIR      31  19  61 S13       30.12F WCI  21          
6HR MIN TEMP:  12; 6HR MAX TEMP:  31;                                
MANITOWOC      FAIR      32  26  78 S18       30.15F WCI  20          
6HR MIN TEMP:  18; 6HR MAX TEMP:  32;                                
APPLETON       PTSUNNY   30  18  59 S15       30.09F WCI  19          
CLINTONVILLE   FAIR      30  19  64 S13       30.10F WCI  20          
OSHKOSH        FAIR      36  24  62 S24G30    30.10F WCI  24          
6HR MIN TEMP:  13; 6HR MAX TEMP:  36;                                
$$
 
WIZ032>034-041-042-053>061-181900-
SOUTHWEST WISCONSIN
  
CITY           SKY/WX    TMP DP  RH WIND       PRES   REMARKS
LA CROSSE      FAIR      37  27  67 S17G32    29.91F WCI  27          
6HR MIN TEMP:  18; 6HR MAX TEMP:  38;                                
SPARTA         FAIR      36  27  68 S16G26    29.98F WCI  26          
VIROQUA        FAIR      33  28  84 S22G30    29.97F WCI  20          
BOSCOBEL       FAIR      33  25  72 S10G30    30.03F WCI  25          
6HR MIN TEMP:  14; 6HR MAX TEMP:  34;                                
PRAIRIE DU CHI FAIR      33  25  70 SE12G18   30.01F WCI  25          
PLATTEVILLE    FAIR      28  28 100 SE20      30.05F WCI  15          
$$
WIZ056-057-062-063-064-067-068-181900-
SOUTH CENTRAL WISCONSIN
  
CITY           SKY/WX    TMP DP  RH WIND       PRES   REMARKS
REEDSBURG      FAIR      35  23  61 S20G25    30.04F WCI  23          
BARABOO/DELLS  FAIR      34  23  64 S22G29    30.05F WCI  22          
LONE ROCK      FAIR      33  25  72 S17G24    30.06F WCI  22          
6HR MIN TEMP:  14; 6HR MAX TEMP:  33;                                
MINERAL POINT  PTSUNNY   28  28 100 SE16      30.05F WCI  17          
MADISON        PTSUNNY   31  23  72 S21G29    30.10F WCI  18          
6HR MIN TEMP:  15; 6HR MAX TEMP:  31;                                
MIDDLETON      FAIR      31  24  73 S21G26    30.11F WCI  19          
WATERTOWN      FAIR      34  24  68 S16G25    30.14F WCI  23          
MONROE         CLOUDY    27  27 100 S13G18    30.11F WCI  16          
JANESVILLE     PTSUNNY   30  25  80 S17G23    30.16F WCI  18          
$$
 
WIZ051-052-058>065-066-070>072-181900-
SOUTHEAST WISCONSIN
  
CITY           SKY/WX    TMP DP  RH WIND       PRES   REMARKS
MILWAUKEE      PTSUNNY   36  26  67 S9G23     30.16F WCI  29          
6HR MIN TEMP:  21; 6HR MAX TEMP:  37;                                
WAUKESHA       SUNNY     34  19  55 S14G25    30.16F WCI  24          
MILWAUKEE/TIMM SUNNY     36  19  51 S15       30.17F WCI  26          
RACINE         FAIR      34  27  75 S15       30.20F WCI  24          
6HR MIN TEMP:  19; 6HR MAX TEMP:  35;                                
BURLINGTON     FAIR      33  22  64 S16G22    30.18F WCI  23          
KENOSHA        FAIR      36  25  64 SW18G24   30.18F WCI  26          
6HR MIN TEMP:  19; 6HR MAX TEMP:  37;                                
FOND DU LAC    FAIR      35  20  54 S22G31    30.10F WCI  23          
6HR MIN TEMP:  13; 6HR MAX TEMP:  35;                                
SHEBOYGAN      FAIR      33  26  75 S21G26    30.15F WCI  21          
6HR MIN TEMP:  14; 6HR MAX TEMP:  33;                                
WEST BEND      FAIR      36  23  60 S10G17    30.14F WCI  28          
JUNEAU         FAIR      33  23  66 S15G24    30.14F WCI  22          
$$
LSZ147-162-181900-
LAKE SUPERIOR
  
STATION/POSITION TIME  TEMP    WIND        PRES    WAVE
                       AIR SEA DIR/SP/G            HT/PER
                 (UTC) (F)     (DEG/KT/KT) (MB)    (FT/S)
DEVILS ISLAND    1700   19     120/  9/ 12 1016.5F
SAXON HARBOR     1730   24     120/  1/  9 1012.5F
$$
 
LMZ867-665-643>646-181900-
LAKE MICHIGAN
  
STATION/POSITION TIME  TEMP    WIND        PRES    WAVE
                       AIR SEA DIR/SP/G            HT/PER
                 (UTC) (F)     (DEG/KT/KT) (MB)    (FT/S)
NORTHPORT PIER   1740   27                 1020.7F
KEWAUNEE LAKESHO 1730   29     170/ 16/ 18 1020.7F
SHEBOYGAN LAKESH 1700   29     180/ 18/ 19 1022.8F
PORT WASHINGTON  1740   33     170/ 18/ 21 1022.4F
MILWAUKEE LAKESH 1740   31     150/ 17/ 18   N/A
KENOSHA   LAKESH 1700   31     170/ 15/ 17 1023.4
$$
TC  - TEMPERATURE IN CELSIUS
VSB - VISIBILITY IN STATUTE MILES
WCI - WIND CHILL INDEX
HX  - HEAT INDEX